Regional Weather Roundup
Issued by NWS Sterling, VA

Home | Current Version | Previous Version | Graphics & Text | Print | Product List | Glossary On
Versions: 1 2 3 4 5 6 7 8 9 10 11 12 13 14 15 16 17 18 19 20 21 22 23 24 25 26 27 28 29 30 31 32 33 34 35 36 37 38 39 40 41 42 43 44 45 46 47 48 49 50
000
ASUS41 KLWX 222311
RWRLWX

REGIONAL WEATHER ROUNDUP
NATIONAL WEATHER SERVICE BALTIMORE MD/WASHINGTON DC
700 PM EDT FRI SEP 22 2017

Note: "FAIR" indicates few or no clouds below 12,000 feet
with no significant weather and/or obstructions to visibility.
 TC=TEMPERATURE CELSIUS

 * =Non NWS site. Station does not report precipitation (e.g. rain,
    snow, etc.), thunder, or fog.

DCZ001-MDZ009-015-VAZ040>042-051-053>054-230000-
WASHINGTON METRO

CITY           SKY/WX    TMP DP  RH WIND       PRES   REMARKS
WASHINGTON NAT CLOUDY    79  67  66 N6        29.99S
DULLES         CLOUDY    77  65  66 NW5       29.99F
ANDREWS AFB    CLOUDY    75  63  66 N5        29.98S
FT BELVOIR     CLOUDY    73  67  79 CALM      29.99S
QUANTICO       CLOUDY    76  70  82 NW5       29.99F
COLLEGE PARK*  CLOUDY    73  66  79 CALM      29.99S
LEESBURG*      CLOUDY    79  66  65 CALM      30.01S
MANASSAS*      CLOUDY    76  66  71 CALM      30.00S
GAITHERSBURG*  CLOUDY    73  67  81 CALM      30.01F

$$

MDZ006>007-011-014-230000-
BALTIMORE METRO

CITY           SKY/WX    TMP DP  RH WIND       PRES   REMARKS
BWI AIRPORT    CLOUDY    75  66  73 W3        29.98S
MD SCIENCE CTR   N/A     80  64  58 MISG      29.98S
MARTIN STATE   MOCLDY    75  66  73 NW5       29.99S
ANNAPOLIS      CLOUDY    77  68  73 CALM      29.97F
FORT MEADE*    CLOUDY    70  66  88 CALM      30.01S

$$

MDZ012-015-019>023-230000-
MARYLAND EASTERN SHORE

CITY           SKY/WX    TMP DP  RH WIND       PRES   REMARKS
OCEAN CITY     PTCLDY    72  66  81 W3        29.97S
SALISBURY      PTCLDY    74  66  76 W3        29.97S
CAMBRIDGE*     CLEAR     75  64  69 CALM      29.98R
EASTON*        MOCLDY    75  63  64 CALM      30.02S

$$

MDZ017>025-230000-
SOUTHERN MARYLAND

CITY           SKY/WX    TMP DP  RH WIND       PRES   REMARKS
PATUXENT RIVER CLOUDY    76  67  73 NW7       29.98S
ST INIGOES     PTCLDY    76  68  76 CALM      29.98S
LEONARDTOWN*   CLOUDY    72  66  83 CALM      30.00F

$$

MDZ003>005-230000-
NORTH CENTRAL MARYLAND

CITY           SKY/WX    TMP DP  RH WIND       PRES   REMARKS
FREDERICK*     CLEAR     75  72  88 CALM      30.02F
HAGERSTOWN APT PTCLDY    81  57  43 N5        30.01S
WESTMINSTER*   CLOUDY    79  61  53 N5        30.01F

$$

MDZ501>502-230000-
WESTERN MARYLAND

CITY           SKY/WX    TMP DP  RH WIND       PRES   REMARKS
OAKLAND*       CLEAR     68  57  68 NW3       30.14S
CUMBERLAND*    CLEAR     84  52  32 N6        30.07R

$$

VAZ025>031-230000-
SHENANDOAH VALLEY

CITY           SKY/WX    TMP DP  RH WIND       PRES   REMARKS
WINCHESTER*    CLOUDY    72  64  78 CALM      30.03R
FRONT ROYAL*   CLOUDY    77  66  69 CALM      30.01F
LURAY*         PTCLDY    79  61  53 CALM      30.03S
NEW MARKET*    CLOUDY    77  61  57 CALM      30.02S
STAUNTON*      PTCLDY    79  63  57 CALM      30.06S
WAYNESBORO*    CLOUDY    75  66  73 CALM      30.06F

$$

WVZ021-048>050-054>055-230000-
EASTERN WEST VIRGINIA PANHANDLE

CITY           SKY/WX    TMP DP  RH WIND       PRES   REMARKS
MARTINSBURG    CLOUDY    79  57  46 NW3       30.00S
PETERSBURG*    PTCLDY    77  65  67 CALM      30.04S

$$

VAZ036>039-050-230000-
CENTRAL FOOTHILLS

CITY           SKY/WX    TMP DP  RH WIND       PRES   REMARKS
CHARLOTTESVILL CLOUDY    79  68  69 CALM      30.01S
CULPEPER*      CLOUDY    76  69  78 CALM      30.01S
ORANGE*        CLOUDY    73  68  83 CALM      30.00F
GORDONSVILLE*  CLOUDY    76  72  85 CALM      30.00F
WARRENTON*     CLOUDY    72  64  75 CALM      30.00F

$$

VAZ055>057-230000-
NORTH AND CENTRAL PIEDMONT

CITY           SKY/WX    TMP DP  RH WIND       PRES   REMARKS
FREDERICKSBRG* MOCLDY    78  66  66 CALM      29.99S
STAFFORD*      CLOUDY    71  71  99 CALM      30.03F

$$

NCZ024-NYZ072-PAZ021-071-VAZ022-071-230000-
OTHER REGIONAL OBSERVATIONS

CITY           SKY/WX    TMP DP  RH WIND       PRES   REMARKS
NEW YORK CITY  MOCLDY    78  55  44 NE9       29.97S
PHILADELPHIA   CLOUDY    79  56  45 N7        29.95S
PITTSBURGH     CLOUDY    83  53  35 NE6       30.08S
ROANOKE        MOCLDY    79  62  56 SE6       30.06R
RICHMOND       MOCLDY    79  65  62 CALM      30.00R
RALEIGH        PTCLDY    81  61  50 NE3       30.00R

$$

ANZ530>537-230000-
MARINE OBSERVATIONS

STATION/POSITION TIME  TEMP    WIND        PRES
                       AIR SEA DIR/SP/G
                 (UTC) (F)     (DEG/KT/KT) (MB)
THOMAS PT LIGHT  2300   77 76  320/  5/  6   N/A
BALT KEY BRIDGE  2242   79     290/  6/  7 1014.9S
COVE POINT       2242   77      10/  7/ 10 1016.0R
LEWISETTA        2242   78 77  310/  5/  5 1015.1F
SOLOMONS ISLAND  2242   77 76  300/  2/  4 1014.8S
PINEY POINT      2236          320/  8/  9   N/A

$$




USA.gov is the U.S. government's official web portal to all federal, state and local government web resources and services.